Home > Time Zones > World Clock > Weather > Egypt > Cairo > Past weeks

Flag Weather past 2 weeks in Cairo, Egypt

Now
59 °F

Scattered clouds.


Feels Like: 58 °F
Forecast: 56 / 71 °F
Wind: 7 mph from Southwest

Location: Cairo Airport

Current Time: Nov 24, 2014 at 7:34:36 AM

Latest Report: Nov 24, 2014 at 7:00 AM


Visibility: N/A

Pressure: 29.98 "Hg

Humidity: 68%

Dew point: 48 °F

Location of CairoLocation

Historic Weather in Cairo — Graph

°F

Cairo temperature yesterday

Maximum temperature yesterday: 70 °F (at 3:00 PM)
Minimum temperature yesterday: 59 °F (at 5:00 AM)
Average temperature yesterday: 64 °F

Past Weeks' High & Low Weather Summary

 TemperatureHumidityPressure
High81 °F (Nov 9, 1:30 PM)100% (Nov 20, 8:00 AM)30.15 "Hg (Nov 20, 8:00 AM)
Low57 °F (Nov 19, 6:30 AM)28% (Nov 15, 2:30 PM)29.89 "Hg (Nov 13, 3:00 PM)
Average68 °F63%30.03 "Hg
* Reported Nov 9 5:00 AM — Nov 24 5:30 AM, Cairo, Weather by CustomWeather, © 2014

Note: Actual official high and low records may vary slightly from our data, if they occured in-between our weather recording intervals... More about our weather records

Advertising

Cairo weather history for previous 24 hours

 ConditionsComfort  
Time TempWeatherWind HumidityBarometerVisibility
5:30 AM
Nov 24
59 °FClear.7 mph68%29.98 "Hg10 mi
5:00 AM59 °FClear.8 mph68%29.98 "Hg10 mi
4:00 AM59 °FClear.7 mph68%29.98 "Hg10 mi
3:30 AM59 °FClear.6 mph68%29.98 "Hg10 mi
3:00 AM59 °FClear.8 mph68%29.98 "Hg10 mi
2:30 AM59 °FClear.8 mph68%29.98 "Hg10 mi
1:00 AM61 °FClear.7 mph63%30.01 "Hg10 mi
12:30 AM59 °FClear.5 mph68%30.01 "Hg10 mi
12:00 AM59 °FClear.5 mph68%30.01 "Hg10 mi
11:30 PM
Nov 23
61 °FClear.5 mph63%30.01 "Hg10 mi
10:30 PM63 °FClear.6 mph59%30.01 "Hg10 mi
10:00 PM63 °FClear.6 mph59%30.01 "Hg10 mi
9:30 PM63 °FPassing clouds.5 mph64%30.04 "HgN/A
9:00 PM63 °FPassing clouds.5 mph59%30.04 "HgN/A
8:30 PM63 °FPassing clouds.9 mph59%30.04 "HgN/A
8:00 PM63 °FPassing clouds.9 mph59%30.04 "HgN/A
7:30 PM63 °FPassing clouds.8 mph59%30.04 "HgN/A
7:00 PM63 °FPassing clouds.8 mph59%30.04 "HgN/A
6:30 PM64 °FPassing clouds.8 mph56%30.04 "HgN/A
6:00 PM64 °FPassing clouds.9 mph56%30.01 "HgN/A
5:30 PM66 °FPartly cloudy.10 mph46%30.01 "HgN/A
5:00 PM68 °FPartly cloudy.12 mph38%30.01 "HgN/A
4:30 PM68 °FScattered clouds.12 mph38%30.01 "HgN/A
4:00 PM68 °FScattered clouds.8 mph43%30.01 "HgN/A
3:30 PM68 °FScattered clouds.10 mph43%30.01 "HgN/A
3:00 PM70 °FScattered clouds.12 mph40%30.01 "HgN/A
2:30 PM68 °FScattered clouds.9 mph46%30.01 "HgN/A
2:00 PM68 °FScattered clouds.8 mph46%30.01 "HgN/A
1:30 PM68 °FScattered clouds.9 mph46%30.04 "HgN/A
1:00 PM66 °FBroken clouds.6 mph49%30.04 "HgN/A
12:30 PM66 °FBroken clouds.5 mph49%30.04 "HgN/A
12:00 PM66 °FBroken clouds.9 mph49%30.07 "HgN/A
11:30 AM66 °FPartly sunny.9 mph49%30.07 "HgN/A
11:00 AM66 °FPartly sunny.8 mph46%30.07 "HgN/A
10:30 AM68 °FPartly sunny.7 mph46%30.07 "Hg4 mi
10:00 AM66 °FPartly sunny.5 mph52%30.09 "Hg2 mi
9:30 AM66 °FPartly sunny.No wind52%30.09 "Hg2 mi
9:00 AM64 °FPartly sunny.No wind60%30.09 "Hg2 mi
8:30 AM61 °FPartly sunny.No wind68%30.09 "Hg2 mi
8:00 AM61 °FPartly sunny.No wind68%30.09 "Hg2 mi
7:30 AM59 °FScattered clouds.No wind68%30.07 "Hg4 mi
7:00 AM59 °FScattered clouds.No wind68%30.07 "Hg4 mi
Weather by CustomWeather, © 2014

See weather overviewHow to use our weather pages